CAPE
0 0 0 0 0 0 2 24 2 2 0 0 0 0 5 2 2 2 16 28 42 16 6 19 2 5 11 11 63 147 132 270 269 187 196 233 236 283
0 0 0 0 0 0 2 0 0 5 0 0 0 0 0 0 0 6 4 2 2 0 9 34 22 5 1 13 13 27 42 49 135 238 157 206 207 237
0 0 0 0 0 1 2 0 0 1 30 0 0 0 0 0 7 29 24 28 41 25 27 9 46 39 25 15 13 15 21 52 46 116 253 227 166 233
0 0 0 1 0 0 0 0 0 25 0 0 0 0 0 0 0 0 4 15 13 21 23 30 51 71 63 28 40 28 14 8 15 43 178 254 141 257
0 0 0 0 0 0 0 0 2 0 0 0 0 0 0 0 0 0 0 0 2 17 3 12 8 0 2 19 20 8 18 13 6 26 14 113 129 212
0 0 0 0 0 0 0 0 21 10 6 11 11 6 0 0 0 0 0 0 0 4 8 1 2 0 2 0 0 7 3 2 2 9 0 10 64 162
0 0 0 0 0 0 3 3 16 25 20 28 13 6 8 2 2 3 5 2 4 0 1 0 0 0 1 0 1 0 0 0 1 1 1 2 30 26
0 0 0 0 0 3 7 12 19 20 17 16 11 7 6 4 4 11 13 10 3 4 11 12 0 1 0 0 0 1 0 0 0 0 3 55 14 0
0 0 0 0 1 3 3 11 12 17 15 9 8 3 2 0 17 1 7 4 8 4 15 3 4 3 6 0 1 0 2 0 0 0 4 5 1 1
0 0 1 3 0 8 5 3 1 0 0 2 8 1 1 6 1 11 10 5 4 1 1 2 3 3 1 0 0 0 3 1 0 4 0 2 3 2
0 0 16 1 9 13 17 5 0 1 1 1 18 14 12 3 5 6 3 4 2 3 1 4 1 1 0 0 0 0 0 1 0 3 4 4 4 3
0 6 0 9 14 6 6 9 2 0 0 1 2 5 2 0 1 4 2 2 1 1 0 3 5 0 0 0 1 0 1 3 3 4 3 3 4 1
0 0 0 15 33 2 2 1 2 6 6 1 0 0 3 2 1 0 2 1 2 3 1 3 0 0 0 0 0 0 0 1 0 6 8 6 5 2
2 0 0 2 0 0 1 3 3 7 0 1 1 3 2 3 1 2 1 0 0 0 0 0 1 1 0 0 0 1 0 0 2 2 2 4 7 5
0 15 0 0 0 0 0 0 0 0 0 1 2 3 2 1 1 1 0 0 0 0 0 0 0 0 0 0 0 0 0 0 0 0 0 0 1 0
21 1 0 0 0 0 0 0 0 1 0 2 1 1 0 2 0 0 0 0 0 0 0 0 0 0 0 0 0 0 0 0 0 0 0 0 0 0
13 0 0 0 0 0 0 0 0 0 0 0 0 0 0 1 0 0 0 0 0 0 0 0 0 0 0 0 0 0 0 0 0 0 0 0 0 0
0 0 0 1 1 2 2 2 0 0 0 0 0 0 0 3 0 0 0 0 0 0 0 0 0 0 0 0 0 0 0 0 0 0 0 0 0 0
0 0 0 1 1 1 2 1 0 0 0 0 0 0 0 0 0 0 0 0 0 0 0 0 0 0 0 0 0 0 0 0 0 0 0 0 0 0
0 3 1 1 1 2 1 0 0 0 0 0 0 0 0 0 0 0 0 0 0 0 0 0 0 0 0 0 0 0 0 0 0 0 0 0 0 0
0 1 1 1 3 1 0 0 0 0 0 0 0 0 0 0 0 0 0 0 0 0 0 0 0 0 0 0 0 0 0 0 0 0 0 0 0 0
0 1 0 1 1 0 0 0 0 0 0 0 0 0 0 0 0 0 0 0 0 0 0 0 0 0 0 0 0 0 0 0 0 0 0 0 0 0
0 1 1 0 0 0 0 0 0 0 0 0 0 0 0 0 0 0 0 0 0 0 0 0 0 0 0 0 0 0 0 0 0 0 0 0 0 0
CIN
0 0 0 0 0 0 -1 0 0 0 0 0 0 0 -2 -5 -4 -4 -7 -5 -5 -16 -55 -83 -73 -34 -47 -14 -7 -4 -16 -2 -1 -4 -7 -19 -5 -3
0 0 0 0 0 0 -3 -1 0 0 0 0 0 0 0 0 0 -1 -1 -2 -4 0 -8 -18 -24 -57 -60 -41 -15 -34 -47 -15 -5 -1 -8 -11 -8 -2
0 0 0 0 0 0 -1 0 0 0 0 0 0 0 0 0 -3 -2 -2 -1 -1 -9 -22 -10 -24 -11 -18 -37 -22 -16 -6 -15 -18 -1 -1 -14 -9 -3
0 0 0 -2 0 0 0 0 0 -2 0 0 0 0 0 0 0 0 0 0 0 0 -1 -17 -10 -35 -8 -10 -20 -33 -24 0 -6 0 -5 -6 -7 -4
0 0 0 0 0 0 0 0 -1 -5 0 0 0 0 0 0 0 0 0 0 0 -1 -1 -2 -5 0 -27 -22 -24 -32 -28 -49 -23 -3 -13 -5 -4 -5
0 0 0 0 0 0 0 0 0 -4 -1 -1 0 0 0 0 0 0 0 0 0 -1 0 -3 0 0 -21 -31 0 -10 -1 0 -7 -34 -3 -10 -2 -2
0 0 0 0 0 0 -1 -2 -2 -1 0 0 0 0 0 0 0 -1 0 -1 -1 -1 0 0 0 0 -25 0 0 0 0 -2 -5 -11 0 -2 -3 -14
0 0 0 0 0 -1 -1 -2 -3 -3 -2 0 0 0 0 0 -1 0 -4 0 -1 -2 -1 0 0 0 0 0 0 0 0 0 0 0 -3 0 -13 0
0 0 0 0 -1 -2 -3 -2 -2 -3 -3 -2 0 0 0 0 0 -1 0 0 0 -1 -2 0 -1 0 -1 0 -1 -1 0 0 0 0 -1 -4 0 0
0 0 -1 -3 0 -3 -3 -5 -8 0 0 -1 -7 -3 0 -20 0 0 -1 0 0 0 0 0 -1 -1 -2 -1 0 0 0 0 0 0 0 0 0 0
0 -1 -1 -3 -1 -5 -2 -1 0 -2 0 -1 -1 -2 -2 -1 -1 0 0 0 -1 0 0 0 0 0 0 0 0 0 0 0 0 0 0 0 0 0
-6 -1 -1 -2 -2 -6 -5 -1 -2 0 0 0 0 -3 -6 -1 -1 -1 -1 0 0 0 -1 0 0 0 0 0 0 0 0 0 0 0 0 0 0 0
-1 0 0 -1 -2 -4 -5 -6 -3 -4 0 0 0 0 -1 -2 -1 -1 -2 -1 0 0 -1 0 0 0 0 0 0 0 0 0 0 -1 0 0 0 0
-3 0 0 0 -3 0 -2 -3 -3 -4 0 0 0 0 0 0 -1 -2 -1 0 0 0 0 0 0 0 0 0 0 0 0 0 0 0 0 0 0 0
-1 -4 0 0 0 0 0 -1 -3 -1 0 0 0 0 0 -1 -1 -1 -1 0 0 0 0 0 0 0 0 0 0 0 0 0 0 0 0 0 0 0
-2 -16 0 0 0 0 0 0 0 -1 -1 0 0 0 -1 0 0 0 0 0 0 0 0 0 0 0 0 0 0 0 0 0 0 0 0 0 0 0
-6 0 0 0 -1 0 0 -1 -1 -1 0 0 -1 0 0 0 -2 0 0 0 0 0 0 0 0 0 0 0 0 0 0 0 0 0 0 0 0 0
0 0 0 -1 0 0 0 0 -1 0 0 0 0 0 0 -1 0 0 0 0 0 0 0 0 0 0 0 0 0 0 0 0 0 0 0 0 0 0
0 0 0 0 0 -1 -1 -1 0 0 0 0 0 0 0 0 0 0 0 0 0 0 0 0 0 0 0 0 0 0 0 0 0 0 0 0 0 0
0 0 0 0 -1 -1 -1 0 0 0 0 0 0 0 0 0 0 0 0 0 0 0 0 0 0 0 0 0 0 0 0 0 0 0 0 0 0 0
0 0 -1 -1 -1 -1 -1 0 0 0 0 0 0 0 0 0 0 0 0 0 0 0 0 0 0 0 0 0 0 0 0 0 0 0 0 0 0 0
-1 -1 -1 -2 -1 -1 0 0 0 0 0 0 0 0 0 0 0 0 0 0 0 0 0 0 0 0 0 0 0 0 0 0 0 0 0 0 0 0
-1 -1 -2 -1 0 0 0 0 0 0 0 0 0 0 0 0 0 0 0 0 0 0 0 0 0 0 0 0 0 0 0 0 0 0 0 0 0 0
Wind_Speed
46 46 48 47 45 44 43 43 48 57 59 56 52 47 47 49 51 52 53 52 54 54 54 51 48 48 47 51 46 47 47 49 48 47 41 38 33 33
49 49 48 47 45 43 43 43 45 48 54 52 53 50 50 51 52 52 54 56 56 56 57 54 51 49 49 52 50 47 51 49 50 48 44 40 37 35
49 49 48 47 45 44 42 43 46 44 49 52 49 52 54 53 52 51 52 54 54 55 54 56 54 51 51 52 53 51 50 54 50 52 44 41 37 36
49 48 48 46 48 45 46 49 47 42 46 52 54 52 51 53 53 55 53 52 54 54 55 56 54 51 49 49 52 53 54 53 46 45 49 41 37 34
47 49 52 50 51 50 50 50 48 45 47 50 56 52 53 52 52 52 55 55 52 52 53 52 51 52 52 50 49 49 52 50 49 39 48 44 38 35
49 50 52 52 53 54 53 52 49 52 52 51 53 56 54 52 51 54 58 53 56 52 50 53 55 54 53 52 50 51 51 50 51 51 49 53 43 37
52 53 52 54 55 53 54 55 54 54 55 55 56 57 56 55 55 53 56 56 54 53 53 53 50 51 49 47 47 48 49 49 53 52 49 50 39 36
55 55 55 55 54 57 56 56 56 57 57 57 57 59 58 55 51 52 51 56 62 47 47 53 52 53 52 51 50 50 50 50 48 42 49 47 34 31
53 54 54 52 54 53 55 56 54 54 53 55 55 52 51 48 48 53 55 54 57 55 54 61 50 55 49 50 49 49 49 50 45 45 36 31 30 27
49 49 49 50 50 53 55 54 52 53 52 50 48 46 43 42 46 51 52 56 56 53 48 57 49 51 46 46 47 47 48 47 43 40 25 20 24 25
46 45 45 47 49 53 53 55 56 52 50 52 52 52 49 52 51 48 47 49 51 50 46 50 49 52 46 46 43 43 44 40 21 12 15 13 16 19
42 42 44 46 49 52 56 52 52 54 54 53 49 45 43 43 45 43 43 46 47 47 34 38 41 38 41 35 35 34 23 15 13 11 12 12 13 16
43 44 40 41 45 55 55 46 50 53 51 47 47 45 43 42 41 42 40 42 45 46 43 41 39 37 36 36 29 25 19 16 14 10 10 11 11 13
44 41 39 41 48 48 43 47 49 48 45 43 42 41 42 42 42 43 42 41 41 41 40 40 40 40 37 34 30 26 22 18 12 11 13 11 10 9
42 39 44 45 49 40 38 50 49 43 38 36 37 38 38 39 40 42 40 37 30 32 33 33 36 33 30 33 31 27 22 19 11 12 13 12 9 10
39 40 44 47 45 40 39 39 38 31 30 32 34 35 37 38 40 39 32 28 27 26 25 26 26 27 28 28 25 20 19 16 14 12 9 9 10 10
47 42 42 44 42 41 40 39 31 28 27 31 34 36 38 36 34 30 26 24 23 22 23 20 17 14 13 15 13 9 8 7 7 8 11 11 12 9
47 37 39 42 40 34 33 31 28 27 28 30 31 33 35 30 27 23 21 21 14 12 16 15 13 11 9 8 5 1 4 4 8 10 10 11 12 12
42 34 43 34 21 29 28 26 26 26 28 28 31 32 28 23 21 19 17 16 15 12 12 11 11 10 6 4 6 8 6 6 6 8 8 10 10 11
36 38 19 24 28 27 26 24 26 25 26 27 27 25 21 18 15 14 14 14 10 10 9 8 8 8 7 7 7 9 7 3 3 5 7 9 8 8
33 21 24 27 26 26 25 23 22 23 26 24 20 18 16 14 12 11 12 10 7 10 8 9 10 11 11 10 8 8 9 8 7 5 5 7 8 8
16 24 25 26 26 25 23 22 22 23 20 16 16 13 11 10 10 11 8 8 8 10 11 13 14 14 13 11 10 10 9 10 10 8 8 9 9 11
25 25 26 26 24 24 23 22 22 17 13 9 7 8 5 4 5 6 7 10 12 14 15 15 16 16 14 14 13 11 10 10 10 8 8 8 10 13
Wind_Direction
326 324 322 320 318 317 314 313 312 308 306 306 307 309 307 305 302 299 297 295 292 289 287 286 284 283 283 281 277 277 275 272 270 269 267 266 259 254
327 325 323 321 320 319 317 316 313 310 307 308 308 310 309 306 303 300 296 293 291 290 288 286 285 284 283 280 280 276 274 274 270 267 266 264 263 257
328 326 324 323 321 321 320 319 316 314 310 309 311 310 309 308 306 303 300 296 293 289 289 285 284 283 281 280 278 279 275 271 270 269 264 262 260 255
328 327 325 325 322 322 319 317 315 314 313 310 310 311 311 309 306 303 301 298 294 291 288 285 284 283 283 281 279 277 276 275 273 270 266 259 255 250
328 326 323 322 320 319 318 316 315 313 312 310 308 309 308 309 307 305 302 299 296 292 291 289 285 284 282 282 281 280 278 276 270 275 268 262 250 243
327 324 322 321 319 318 316 315 313 312 311 309 308 307 307 307 306 304 301 299 294 294 292 288 284 281 281 281 281 280 278 275 273 273 273 263 257 236
325 324 322 319 318 317 316 314 313 312 311 310 308 307 306 305 303 303 300 297 293 294 291 288 286 282 282 283 283 282 279 277 275 274 273 263 254 239
325 323 322 320 319 317 315 314 312 312 310 309 307 306 305 305 304 301 300 296 289 294 291 284 286 282 280 282 283 281 280 278 278 280 276 263 245 223
326 325 324 324 322 320 317 315 314 312 311 309 307 308 307 306 305 302 298 294 288 287 287 278 284 278 282 281 283 281 280 278 279 280 277 260 234 219
330 330 330 328 327 325 321 318 317 315 313 312 310 310 309 309 307 303 299 292 287 285 287 278 283 281 285 285 284 282 281 278 276 278 252 236 221 218
334 334 335 333 332 328 326 322 318 317 316 311 307 306 308 304 302 303 302 295 286 287 288 284 283 281 285 283 286 283 280 279 268 249 228 218 215 212
339 338 337 336 334 331 327 326 321 316 311 307 310 311 312 309 302 304 302 293 290 286 296 294 290 291 285 289 288 287 282 269 245 231 213 207 200 226
341 340 341 340 339 333 329 332 323 305 305 310 305 306 307 308 307 305 304 295 287 277 283 290 289 287 283 281 284 283 273 261 256 242 218 212 211 233
340 341 341 344 341 340 340 308 305 308 310 299 297 296 297 299 299 299 291 286 286 268 281 280 276 270 272 273 275 269 261 259 254 249 240 224 227 221
341 341 341 341 340 344 344 329 319 328 296 290 291 290 290 288 291 296 290 279 255 262 278 274 262 273 272 260 261 258 254 255 254 245 242 236 219 212
343 343 342 340 342 344 345 346 345 292 288 288 289 287 289 289 293 291 276 267 256 251 271 290 281 268 264 261 262 257 249 257 249 239 227 227 229 224
341 341 343 343 345 346 347 347 296 292 289 292 292 292 293 288 286 279 265 259 246 249 279 291 297 303 290 267 263 257 248 242 218 210 220 224 238 239
340 344 344 345 348 348 300 298 296 295 293 295 293 292 291 285 280 270 259 253 203 22 307 291 285 280 295 336 349 253 242 237 224 227 234 243 249 258
343 349 341 351 302 298 297 295 295 296 297 296 296 293 289 280 272 263 252 248 5 320 280 260 257 256 279 304 281 266 256 253 235 247 257 265 265 267
350 347 303 297 297 296 296 295 297 299 301 300 298 293 286 278 267 253 252 328 340 243 254 283 275 271 279 280 279 278 303 358 298 281 280 291 302 302
354 298 295 296 295 295 296 297 301 304 304 301 296 292 289 282 280 283 335 349 296 235 268 287 293 302 302 306 335 326 321 328 334 326 319 311 303 300
306 294 295 295 294 295 297 301 305 306 302 298 299 298 301 309 327 340 312 294 276 300 328 328 322 322 333 340 355 342 338 334 335 341 336 331 317 300
294 294 295 295 294 296 300 305 305 300 295 291 285 295 274 242 226 239 267 300 318 328 335 345 346 348 352 354 356 354 354 353 346 346 340 337 345 345